Cheraw, CO

6:45 AM MDT on July 29, 2016 (GMT -0600)
La Junta Municipal

Weather History for KLHX - December, 2014

Change the Weather History Date:

Friday, December 12, 2014

  Actual Average Record
Temperature  
Mean Temperature 41 °F 31 °F  
Max Temperature 60 °F 44 °F 67 °F (1957)
Min Temperature 21 °F 17 °F -20 °F (1961)
Degree Days  
Heating Degree Days 24 34  
Month to date heating degree days 313 395  
Since 1 July heating degree days 1384 1540  
Cooling Degree Days 0 0  
Month to date cooling degree days 0 0  
Year to date cooling degree days 1369 1226  
Moisture  
Dew Point 25 °F    
Average Humidity 60    
Maximum Humidity 100    
Minimum Humidity 20    
Precipitation  
Precipitation 0.00 in 0.01 in 0.30 in (2001)
Month to date precipitation 0.00 0.10  
Year to date precipitation 13.43 11.30  
Sea Level Pressure  
Sea Level Pressure 30.06 in    
Wind  
Wind Speed 8 mph (East)    
Max Wind Speed 15 mph    
Max Gust Speed 18 mph    
Visibility 7 miles    
Events Fog    
T = Trace of Precipitation, MM = Missing Value Source: NWS Daily Summary

Daily Weather History Graph

Daily Weather History Graph

Search for Another Location

Airport or City:

Trip Planner

Search our weather history database for the weather conditions in past years. The results will help you decide how hot, cold, wet, or windy it might be!

Date:

Astronomy

Dec. 12, 2014 Rise Set
Actual Time 7:00 AM MST 4:34 PM MST
Civil Twilight 6:31 AM MST 5:04 PM MST
Nautical Twilight 5:58 AM MST 5:37 PM MST
Astronomical Twilight 5:26 AM MST 6:09 PM MST
Moon 10:38 PM MST (12/12) 11:00 AM MST (12/12)
Length of Visible Light 10h 32m
Length of Day
9h 33m
Waning Gibbous, 66% of the Moon is Illuminated
Dec 12
Waning Gibbous
Dec 14
Last Quarter
Dec 21
New
Dec 28
First Quarter
Jan 4
Full

Hourly Weather History & Observations

Time (MST) Temp. Windchill Dew Point Humidity Pressure Visibility Wind Dir Wind Speed Gust Speed Precip Events Conditions
12:53 AM 25.0 °F 14.2 °F 16.0 °F 69% 30.07 in 10.0 mi West 11.5 mph - N/A   Clear
1:53 AM 25.0 °F 13.6 °F 16.0 °F 69% 30.07 in 10.0 mi West 12.7 mph - N/A   Clear
2:53 AM 24.1 °F 13.7 °F 15.1 °F 69% 30.06 in 10.0 mi West 10.4 mph - N/A   Clear
3:53 AM 24.1 °F 15.2 °F 15.1 °F 69% 30.08 in 10.0 mi West 8.1 mph - N/A   Clear
4:53 AM 21.0 °F 12.4 °F 15.1 °F 78% 30.11 in 10.0 mi West 6.9 mph - N/A   Clear
5:53 AM 21.9 °F 15.7 °F 12.9 °F 68% 30.12 in 10.0 mi WSW 4.6 mph - N/A   Clear
6:53 AM 26.1 °F 20.5 °F 14.0 °F 60% 30.13 in 10.0 mi SW 4.6 mph - N/A   Clear
7:53 AM 28.9 °F 21.1 °F 16.0 °F 58% 30.14 in 10.0 mi West 8.1 mph - N/A   Clear
8:53 AM 34.0 °F 31.0 °F 19.0 °F 54% 30.16 in 10.0 mi East 3.5 mph - N/A   Clear
9:53 AM 39.0 °F - 19.0 °F 45% 30.15 in 10.0 mi Calm Calm - N/A   Clear
10:53 AM 46.0 °F 44.8 °F 19.0 °F 34% 30.12 in 10.0 mi SE 3.5 mph - N/A   Clear
11:53 AM 52.0 °F - 19.9 °F 28% 30.07 in 10.0 mi ESE 6.9 mph - N/A   Clear
12:53 PM 57.0 °F - 19.9 °F 24% 30.02 in 10.0 mi East 6.9 mph - N/A   Clear
1:53 PM 60.1 °F - 19.0 °F 20% 29.99 in 10.0 mi ESE 9.2 mph - N/A   Clear
2:53 PM 59.0 °F - 19.9 °F 22% 29.99 in 10.0 mi East 12.7 mph - N/A   Clear
3:53 PM 53.1 °F - 23.0 °F 31% 30.00 in 10.0 mi East 11.5 mph - N/A   Clear
4:53 PM 43.0 °F 37.2 °F 26.1 °F 51% 30.04 in 10.0 mi East 10.4 mph - N/A   Clear
5:53 PM 39.9 °F 33.4 °F 35.1 °F 83% 30.05 in 10.0 mi East 10.4 mph - N/A   Clear
6:53 PM 37.0 °F 31.0 °F 35.1 °F 93% 30.06 in 6.0 mi East 8.1 mph - N/A   Clear
7:02 PM 36.0 °F 29.6 °F 35.1 °F 97% 30.02 in 5.0 mi ENE 8.1 mph - N/A   Scattered Clouds
7:06 PM 37.0 °F 29.8 °F 35.1 °F 93% 30.02 in 2.5 mi ENE 10.4 mph - N/A   Mostly Cloudy
7:09 PM 37.0 °F 29.8 °F 35.1 °F 93% 30.02 in 1.0 mi East 10.4 mph - N/A   Mist
7:16 PM 37.0 °F 29.3 °F 36.0 °F 96% 30.02 in 0.2 mi East 11.5 mph - N/A Fog Fog
7:53 PM 37.0 °F 29.8 °F 36.0 °F 96% 30.06 in 0.2 mi East 10.4 mph - N/A Fog Fog
8:53 PM 37.0 °F 29.8 °F 36.0 °F 96% 30.04 in 0.2 mi East 10.4 mph - N/A Fog Fog
9:53 PM 36.0 °F 30.3 °F 36.0 °F 100% 30.04 in 0.2 mi East 6.9 mph - N/A Fog Fog
10:53 PM 36.0 °F 32.1 °F 35.1 °F 97% 30.01 in 0.2 mi East 4.6 mph - N/A Fog Fog
11:53 PM 35.1 °F 30.1 °F 34.0 °F 96% 29.98 in 0.2 mi West 5.8 mph - N/A Fog Fog